MOLNIYA 1-90

Last updated on Jan. 26, 2021, 8:12 a.m. UTC

1 24960U 97054A   21025.70020023  .00000050  00000-0  36821-3 0  9998
2 24960  63.5644 282.4282 6315100 300.7716  12.1550  3.18685768191826
UTC
Height (km)
Latitude
Longitude
Inclination
Orbital Period
UTC large
Height (km)
Speed (km/s)
/
Latitude / Longitude
Inclination (degrees)
Orbital Period (minutes)
Azimuth
Elevation
Range (km)
Doppler Factor
iOS Compass Heading
iOS Angle

Next 30 passes for location: Hong Kong

Rise time Rise Azimuth (degrees) Set time Set Azimuth (degrees) Duration Max altitude (degrees)

No matching passes for this satellites